Regional Weather Roundup
Issued by NWS

Home | Current Version | Previous Version | Text Only | Print | Product List | Glossary On
Versions: 1 2 3 4 5 6 7 8 9 10 11 12 13 14 15 16 17 18 19 20 21 22 23 24 25 26 27 28 29 30 31 32 33 34 35 36 37 38 39 40 41 42 43 44 45 46 47 48 49 50
000
ASUS44 KJAN 051010
RWRMS

MISSISSIPPI HOURLY WEATHER ROUNDUP
NATIONAL WEATHER SERVICE JACKSON MS
500 AM CDT WED AUG 05 2015

NOTE: "FAIR: INDICATES FEW OR NO CLOUDS BELOW 12,000 FEET WITH NO
SIGNIFICANT WEATHER AND/OR OBSTRUCTIONS TO VISIBILITY.

MSZ001>002-007>008-010>013-018>021-025>028-034>036-051100-
NORTHWEST MISSISSIPPI

CITY           SKY/WX    TMP DP  RH WIND       PRES   REMARKS
CLARKSDALE     MOCLDY    77  75  94 CALM      29.96S
CLEVELAND      FAIR      77  74  90 SW3       29.95S
GREENWOOD      CLOUDY    76  69  79 S8        29.96S
GREENVILLE     MOCLDY    79  73  82 S5        29.94F
OLIVE BRANCH     N/A     79  73  83 S6        29.97S
OXFORD         FAIR      77  68  73 MISG      29.99S
TUNICA         MOSUNNY   79  72  78 SE6       29.96S
$$

MSZ003>006-009-014>017-022>024-029>033-037>039-051100-
NORTHEAST MISSISSIPPI

CITY           SKY/WX    TMP DP  RH WIND       PRES   REMARKS
COLUMBUS AFB   PTCLDY    72  69  92 SE3       29.98
CORINTH          N/A     75  72  88 SE3       29.97F
GOLDN TRIANGLE CLEAR     73  66  78 CALM      29.98S
STARKVILLE     FAIR      70  68  94 CALM      29.99S
TUPELO         MOCLDY    78  74  87 CALM      29.97F
$$

MSZ040-058-051100-
CENTRAL MISSISSIPPI

CITY           SKY/WX    TMP DP  RH WIND       PRES   REMARKS
JACKSON INTL   CLEAR     76  73  91 S5        29.99S
JACKSON HAWKNS CLEAR     77  73  87 SE3       29.99S
MERIDIAN KEY   CLEAR     72  70  93 CALM      30.00S
MERIDIAN NAS   CLEAR     75  71  87 CALM      30.00S
VICKSBURG      CLEAR     75  73  93 CALM      29.97S
$$

MSZ059>079-051100-
SOUTH MISSISSIPPI

CITY           SKY/WX    TMP DP  RH WIND       PRES   REMARKS
BROOKHAVEN       N/A     75  73  94 CALM      30.02S
HATTIESBURG    CLOUDY    78  74  87 CALM      29.99F
MCCOMB         MOCLDY    75  74  96 CALM      30.00R
NATCHEZ        CLEAR     77  73  88 SW3       30.00S
PINE BELT      CLOUDY    73  72  94 CALM      30.02S
$$

MSZ080>082-051100-
COASTAL MISSISSIPPI

CITY           SKY/WX    TMP DP  RH WIND       PRES   REMARKS
BILOXI         CLOUDY    79  77  94 W6        29.99S THUNDER
PASCAGOULA     HVY RAIN  73  73 100 W5        30.00R VSB 1
GULFPORT       MOCLDY    79  76  90 CALM      29.99R
$$



USA.gov is the U.S. government's official web portal to all federal, state and local government web resources and services.